星链-3817 (STARLINK-3817 )

导读 | 豆包AI

STARLINK-3817是美国太空探索技术公司Starlink卫星互联网星座的成员,于2022年4月29日发射升空。它属于低轨通信卫星,运行在近地轨道,为全球范围内提供高速互联网接入服务,拓展了全球网络覆盖范围,尤其助力偏远地区实现网络连接,是星链组网建设中推进卫星互联网普及的重要一环。

Basic Information
目录编号:
52367
目录名称:
STARLINK-3817
国际标识:
2022-045AN
轨道中心:
EARTH
卫星名称:
星链-3817
卫星全名:
星链-3817 (STARLINK-3817 )
卫星状态:
在轨 (已飞行1462 天)
发射日期:
2022-04-29 UTC
国别 :
美国 (US)
星等 :
--
Orbit Information
数据来源 国际轨道数据 AOE轨道数据
星历时间 2026-04-30T20:22:06+0800
10小时前
查看轨道信息
2026-04-26T18:00:00+0800
4天前
查看轨道信息
半长轴 6917.898km 6917.879km
偏心率 0.0001635 0.0002354
轨道倾角 53.218° 53.217°
近地点辐角 109.897° 67.506°
升交点赤经 316.465° 334.868°
平近点角 250.220° 337.223°
近地点 538.629km 538.113km
远地点 540.893km 541.371km
周期 95.438分钟 95.438分钟
每日圈数 15.088344 15.088405
Detailed Information
固有亮度:
5
最大亮度:
2.5
卫星平台:
Starlink v1.5
覆盖范围:
全球
运营商:
太空探索技术公司
运营商所在国:
美国
制造商(研发单位):
太空探索技术公司
制造商所在国:
美国
使用方式:
暂无
Satellite Introduction
星链(Starlink)计划是由太空探索技术公司(SpaceX)提出的一个巨型低轨卫星互联网星座项目,计划在2019年至2024年间在太空搭建由约1.2万颗卫星组成的“星链”网络,其中1584颗将部署在地球上空550千米处的近地轨道,并从2020年开始工作。该卫星仍在工作。
2D Orbit Map
3D Orbit Map
Orbit Altitude Analysis Chart
Orbit Inclination Analysis Chart
Orbit Comprehensive Analysis Chart
View Comprehensive Chart